[[{"header":{"parameterUnit":"m.s-1","parameterCategory":1,"la1":30.2991,"la2":30.254,"lo1":-89.0895,"lo2":-89.0444,"dy":0.0017,"dx":0.0017,"nx":28,"ny":28,"refTime":"2025-03-21T03:00:00:Z","depth":0,"parameterNumber":2,"parameterNumberName":"U-component_of_WINDS"},"data":[0,0,0,0,0,0,0,0,0,0,0,0,0,0,0,0,0,0,0,0,0,0,0,0,0,0,0,0,0,0,0,0,0,0,0,0,0,0,0,0,0,0,0,0,0,0,0,0,0,0,0,0,0,0,0,0,0,0,0.7722,0.7724,0,0.7907,0.791,0.7912,0.7986,0.7985,0.7985,0.7985,0.8177,0.8182,0.8188,0,0,0,0,0,0,0,0,0,0,0,0,0,0.7433,0.7438,0.7722,0.7724,0.7727,0.7907,0.791,0.7912,0.7986,0.7985,0.7985,0.7984,0.8175,0.8182,0.8188,0,0,0,0,0,0,0,0,0,0,0,0,0,0.7583,0.744,0.7722,0.7785,0.7793,0.7907,0.791,0.7913,0.7986,0.7985,0.7985,0.7984,0.8173,0.8181,0.8189,0.8254,0,0,0.8215,0.8218,0,0,0,0,0,0,0,0,0.7574,0.7593,0.7773,0.7781,0.779,0.7923,0.7879,0.8027,0.7986,0.7913,0.7985,0.7984,0.8093,0.8108,0.8144,0.8263,0.8272,0.8215,0.822,0.8224,0.8226,0,0,0,0,0,0,0,0.7564,0.7586,0.7795,0.7776,0.7786,0.7805,0.7825,0.7907,0.8005,0.7919,0.7925,0.7946,0.8097,0.8136,0.8149,0.8274,0.8215,0.8223,0.8228,0.8231,0.8456,0.8457,0,0,0,0,0,0,0.7543,0.7577,0.779,0.7801,0.7678,0.7811,0.7834,0.7881,0.8004,0.8022,0.7946,0.7948,0.8122,0.814,0.8156,0.8241,0.8224,0.8232,0.8237,0.8455,0.8456,0.8457,0,0,0,0,0,0,0.7536,0.7561,0.7782,0.769,0.772,0.7816,0.7869,0.7885,0.7924,0.8024,0.8042,0.7968,0.8122,0.8145,0.8229,0.8248,0.8235,0.8243,0.8454,0.8455,0.8457,0.8409,0,0,0,0,0,0,0.7527,0.7558,0.7583,0.769,0.7725,0.7851,0.787,0.7889,0.7937,0.7942,0.8049,0.8066,0.8124,0.8216,0.8237,0.8259,0.825,0.8452,0.8454,0.8456,0.8409,0.8409,0.8408,0,0,0,0,0,0.7517,0.7563,0.7584,0.761,0.7758,0.7852,0.7872,0.7936,0.7939,0.7965,0.803,0.8063,0.8242,0.8224,0.8249,0.8273,0.8451,0.8454,0.8456,0.841,0.8409,0.8408,0,0,0,0,0,0,0.7457,0.7579,0.7603,0.7686,0.7758,0.7864,0.79,0.7933,0.8007,0.8008,0.8085,0.8109,0.8187,0.8239,0.8216,0.8343,0.835,0.8357,0.8306,0.8306,0.8305,0.8291,0.8256,0,0,0,0,0,0.7453,0.7519,0.7622,0.7684,0.7719,0.7803,0.7846,0.7889,0.7967,0.7999,0.807,0.8145,0.8218,0.8265,0.8338,0.8417,0.8441,0.8446,0.8445,0.8444,0.845,0.8495,0.8498,0.8464,0.8464,0.8464,0,0,0.7447,0.7521,0.7558,0.7674,0.7735,0.7801,0.7828,0.7898,0.7948,0.801,0.8093,0.8148,0.8237,0.8318,0.8358,0.8364,0.8464,0.8447,0.8445,0.8452,0.8497,0.85,0.8503,0.8466,0.8465,0.8465,0,0,0.7468,0.7531,0.759,0.765,0.7742,0.7797,0.7811,0.7913,0.7951,0.8036,0.8083,0.8144,0.8269,0.833,0.8378,0.8421,0.8454,0.8443,0.844,0.8483,0.8485,0.8488,0.8503,0.8508,0.8448,0.8448,0.8448,0,0.7448,0.755,0.7616,0.7683,0.7732,0.779,0.785,0.7906,0.8017,0.805,0.8055,0.8212,0.8277,0.8373,0.8383,0.842,0.8438,0.8431,0.8479,0.8483,0.8487,0.8502,0.8507,0.8446,0.8446,0.8446,0.8446,0,0.7521,0.759,0.7627,0.7731,0.7785,0.7848,0.7924,0.7971,0.8009,0.8064,0.8149,0.8228,0.8318,0.8344,0.8382,0.8446,0.8446,0.8464,0.8473,0.8486,0.8502,0.8509,0.8443,0.8444,0.8444,0.8445,0,0,0.751,0.765,0.7662,0.771,0.7815,0.7871,0.7936,0.8023,0.8061,0.8135,0.8192,0.8296,0.8313,0.8367,0.8412,0.845,0.8479,0.8464,0.8467,0.8464,0.8553,0.8539,0.8544,0.8501,0.8502,0.8504,0.8545,0,0.7546,0.7665,0.7726,0.7819,0.7884,0.794,0.7997,0.8067,0.812,0.8183,0.8241,0.8313,0.833,0.8363,0.8403,0.8466,0.8498,0.8464,0.8555,0.8557,0.8531,0.8553,0.8538,0.8574,0.8552,0.8553,0.8554,0,0.7603,0.7676,0.7775,0.7871,0.7901,0.7951,0.8035,0.8095,0.8176,0.8211,0.827,0.8315,0.8386,0.8389,0.8488,0.8464,0.8505,0.8541,0.8544,0.8556,0.8557,0.8564,0.8587,0.8592,0.8564,0.8564,0.8563,0,0.7585,0.7708,0.7783,0.7822,0.7937,0.7971,0.802,0.8101,0.8149,0.8222,0.8254,0.8335,0.838,0.8442,0.8507,0.8503,0.86,0.8608,0.8631,0.863,0.865,0.8648,0.8679,0.8675,0.8675,0.8675,0.8675,0,0.7618,0.7677,0.7776,0.7823,0.789,0.7959,0.8024,0.8078,0.8149,0.8206,0.8259,0.8313,0.8395,0.8459,0.8511,0.8585,0.8604,0.8635,0.8648,0.8631,0.8627,0.8659,0.8658,0.8677,0.8676,0.8676,0.8676,0,0.761,0.7679,0.7764,0.7866,0.7892,0.7937,0.8024,0.8071,0.8126,0.8198,0.8219,0.8306,0.8383,0.8454,0.8557,0.8592,0.8667,0.8683,0.8639,0.8646,0.8666,0.8663,0.8719,0.873,0.8718,0.8718,0.8718,0,0.7626,0.7673,0.7778,0.782,0.7869,0.7936,0.7985,0.8055,0.8104,0.8199,0.8235,0.8316,0.8384,0.8505,0.8578,0.8657,0.8676,0.869,0.8688,0.8669,0.8676,0.8672,0.8677,0.8689,0.8689,0.8689,0.8688,0,0.7648,0.768,0.7748,0.7829,0.7885,0.7952,0.802,0.8052,0.8135,0.8187,0.8266,0.8319,0.8424,0.8504,0.8591,0.8642,0.8679,0.8688,0.8698,0.8681,0.8653,0.8668,0.8637,0.8687,0.8687,0.8687,0.8687,0.8687,0.7653,0.7697,0.7778,0.7852,0.791,0.7973,0.8022,0.8082,0.8149,0.8239,0.8277,0.8357,0.8437,0.8557,0.8608,0.8672,0.868,0.8694,0.8698,0.87,0.8696,0.8642,0.8688,0.8689,0.8689,0.8689,0.8689,0,0.7678,0.7733,0.78,0.7893,0.7952,0.798,0.8057,0.8104,0.8174,0.8245,0.8311,0.8401,0.8479,0.8556,0.8638,0.8674,0.8693,0.8693,0.8692,0.8703,0.8685,0.8668,0.8677,0.8677,0.8677,0.8676,0.8676,0.8676,0.7698,0.7772,0.7813,0.7918,0.7972,0.8051,0.8092,0.815,0.8207,0.8305,0.8369,0.8419,0.8493,0.858,0.8652,0.8673,0.8701,0.8696,0.8722,0.8704,0.8704,0.8704,0.8689,0.8701,0.8702,0.8734,0.8734,0.8735]},{"header":{"parameterUnit":"m.s-1","parameterCategory":1,"la1":30.2991,"la2":30.254,"lo1":-89.0895,"lo2":-89.0444,"dy":0.0017,"dx":0.0017,"nx":28,"ny":28,"refTime":"2025-03-21T03:00:00:Z","depth":0,"parameterNumber":3,"parameterNumberName":"V-component_of_WINDS"},"data":[0,0,0,0,0,0,0,0,0,0,0,0,0,0,0,0,0,0,0,0,0,0,0,0,0,0,0,0,0,0,0,0,0,0,0,0,0,0,0,0,0,0,0,0,0,0,0,0,0,0,0,0,0,0,0,0,0,0,4.3457,4.3457,0,4.3438,4.3438,4.3438,4.3445,4.3445,4.3446,4.3446,4.3422,4.3421,4.342,0,0,0,0,0,0,0,0,0,0,0,0,0,4.3494,4.3494,4.3457,4.3457,4.3456,4.3438,4.3438,4.3438,4.3445,4.3445,4.3446,4.3446,4.3422,4.3421,4.342,0,0,0,0,0,0,0,0,0,0,0,0,0,4.3477,4.3493,4.3457,4.3458,4.3458,4.3438,4.3438,4.3438,4.3444,4.3445,4.3446,4.3446,4.3423,4.3421,4.342,4.3397,0,0,4.3415,4.3414,0,0,0,0,0,0,0,0,4.3478,4.3476,4.3458,4.3458,4.3458,4.3445,4.3443,4.3424,4.3444,4.3449,4.3446,4.3447,4.3429,4.3427,4.3422,4.3396,4.3395,4.3415,4.3414,4.3413,4.3413,0,0,0,0,0,0,0,4.3479,4.3476,4.3449,4.3458,4.3457,4.3458,4.3456,4.3439,4.3435,4.3449,4.3449,4.3447,4.3429,4.3423,4.3421,4.3394,4.3415,4.3413,4.3412,4.3412,4.335,4.3349,0,0,0,0,0,0,4.3481,4.3477,4.345,4.3449,4.347,4.3457,4.3455,4.3448,4.3436,4.3434,4.3447,4.3448,4.3425,4.3423,4.342,4.3393,4.3413,4.3412,4.3411,4.335,4.335,4.3349,0,0,0,0,0,0,4.3482,4.3479,4.3451,4.3463,4.346,4.3455,4.3448,4.3447,4.3442,4.3434,4.3433,4.3442,4.3426,4.3422,4.3403,4.3393,4.3411,4.341,4.3351,4.335,4.3349,4.3339,0,0,0,0,0,0,4.3483,4.3479,4.3471,4.3463,4.3459,4.3435,4.3447,4.3446,4.344,4.3441,4.3429,4.3428,4.3426,4.3406,4.3402,4.3391,4.3408,4.3352,4.3351,4.335,4.334,4.3338,4.3336,0,0,0,0,0,4.3484,4.3468,4.3471,4.3467,4.345,4.3435,4.3432,4.3432,4.3439,4.343,4.3426,4.3428,4.3395,4.3403,4.3399,4.3388,4.3353,4.3351,4.335,4.3341,4.3338,4.3336,0,0,0,0,0,0,4.3472,4.3467,4.347,4.345,4.3443,4.3436,4.3425,4.3428,4.3417,4.3419,4.3417,4.3414,4.3395,4.3389,4.3399,4.3365,4.3375,4.3372,4.337,4.3367,4.3364,4.3366,4.3407,0,0,0,0,0,4.3468,4.3458,4.3453,4.3436,4.3432,4.3429,4.3423,4.3423,4.3415,4.3411,4.3405,4.3396,4.3383,4.3375,4.3362,4.334,4.3337,4.333,4.3327,4.3325,4.3323,4.3311,4.3308,4.3344,4.3344,4.3344,0,0,4.3458,4.3453,4.3447,4.3434,4.3428,4.3416,4.3427,4.3414,4.3405,4.3409,4.3391,4.3386,4.3375,4.3355,4.3345,4.3349,4.3313,4.3323,4.3322,4.3321,4.3309,4.3306,4.3303,4.3342,4.3343,4.3343,0,0,4.3434,4.3429,4.3416,4.341,4.3403,4.3401,4.3398,4.339,4.3387,4.337,4.3373,4.3362,4.334,4.3332,4.3326,4.33,4.3302,4.3296,4.3283,4.3272,4.3269,4.3266,4.3257,4.3254,4.3293,4.3293,4.3293,0,4.3422,4.3406,4.3407,4.3395,4.3389,4.3394,4.338,4.3374,4.3362,4.3357,4.3362,4.3336,4.3329,4.3307,4.3301,4.3295,4.329,4.3297,4.3269,4.3267,4.3264,4.3256,4.3252,4.3293,4.3293,4.3293,4.3293,0,4.3391,4.338,4.337,4.336,4.3353,4.3339,4.3338,4.333,4.3331,4.3329,4.3311,4.3303,4.329,4.3284,4.3285,4.3262,4.3265,4.327,4.3279,4.326,4.3252,4.3249,4.3292,4.3292,4.3292,4.3292,0,0,4.3358,4.3351,4.3347,4.3343,4.3336,4.3326,4.3313,4.3301,4.3295,4.3286,4.3274,4.3256,4.3261,4.3254,4.3253,4.3243,4.3223,4.3249,4.3249,4.3244,4.3198,4.3195,4.3191,4.3225,4.3224,4.3224,4.3199,0,4.3334,4.3312,4.3313,4.3292,4.3282,4.3287,4.3275,4.3268,4.3266,4.3256,4.3252,4.324,4.3247,4.3242,4.3233,4.3228,4.3214,4.323,4.3213,4.3212,4.3216,4.3187,4.3183,4.316,4.3196,4.3196,4.3195,0,4.3302,4.3295,4.3273,4.3268,4.3263,4.3253,4.3243,4.3234,4.3226,4.3225,4.3217,4.3219,4.3204,4.3214,4.3193,4.3204,4.3197,4.3194,4.3193,4.3191,4.3203,4.3184,4.3153,4.3149,4.319,4.3191,4.3191,0,4.328,4.3265,4.325,4.3246,4.324,4.3232,4.3229,4.3222,4.3216,4.3206,4.3202,4.3191,4.3185,4.3175,4.3173,4.3181,4.3153,4.3163,4.3151,4.3151,4.3144,4.3144,4.3111,4.314,4.314,4.314,4.314,0,4.3253,4.3239,4.324,4.3231,4.3216,4.3218,4.3202,4.3199,4.3194,4.3183,4.3186,4.3176,4.3175,4.3164,4.3162,4.3145,4.3142,4.314,4.314,4.314,4.314,4.3135,4.3137,4.3139,4.3139,4.3139,4.314,0,4.3226,4.3226,4.3211,4.3206,4.3205,4.3194,4.319,4.318,4.3179,4.3166,4.3162,4.3159,4.3147,4.3144,4.3129,4.3128,4.3108,4.3109,4.3111,4.3111,4.31,4.3101,4.3062,4.3057,4.3089,4.3088,4.3088,0,4.3208,4.3198,4.3193,4.3188,4.3184,4.3175,4.3169,4.317,4.3163,4.3154,4.3146,4.3134,4.3125,4.3105,4.31,4.3089,4.309,4.3077,4.3088,4.3088,4.309,4.309,4.3089,4.3075,4.3074,4.3074,4.3074,0,4.3177,4.3178,4.317,4.3162,4.3155,4.3148,4.3142,4.3137,4.3137,4.3129,4.3118,4.3111,4.3096,4.3084,4.3073,4.3068,4.3071,4.3071,4.3067,4.3067,4.3069,4.3068,4.3105,4.3071,4.3071,4.3072,4.3072,4.3072,4.3154,4.3146,4.3141,4.3132,4.3128,4.3123,4.3114,4.3112,4.3103,4.3093,4.3094,4.3081,4.3074,4.3059,4.3054,4.3043,4.3047,4.3042,4.3041,4.3039,4.3039,4.3071,4.3041,4.3041,4.3041,4.3041,4.3041,0,4.3123,4.3121,4.3113,4.3105,4.3098,4.3103,4.3096,4.309,4.3079,4.3073,4.3064,4.3051,4.304,4.3035,4.3024,4.3016,4.3017,4.3013,4.3014,4.3013,4.3036,4.304,4.3013,4.3013,4.3013,4.3013,4.3013,4.3013,4.3106,4.3092,4.3093,4.3077,4.3075,4.3064,4.306,4.3055,4.305,4.3036,4.3027,4.3025,4.3019,4.3008,4.2998,4.2996,4.2992,4.2988,4.2987,4.3008,4.3011,4.3014,4.3018,4.2987,4.2987,4.2965,4.2965,4.2965]}]]